Regional Weather Roundup
Issued by NWS

Home | Current Version | Previous Version | Graphics & Text | Print | Product List | Glossary On
Versions: 1 2 3 4 5 6 7 8 9 10 11 12 13 14 15 16 17 18 19 20 21 22 23 24 25 26 27 28 29 30 31 32 33 34 35 36 37 38 39 40 41 42 43 44 45 46 47 48 49 50
000
ASUS45 KBOI 010210
RWRID
WEATHER ROUNDUP FOR IDAHO
NATIONAL WEATHER SERVICE BOISE ID
800 PM MDT TUE SEP 30 2014

NOTE: "FAIR" INDICATES FEW OR NO CLOUDS BELOW 12000 FEET
WITH NO SIGNIFICANT WEATHER AND/OR OBSTRUCTIONS TO VISIBILITY

IDZ012-014-010300-
SOUTHWEST IDAHO


CITY           SKY/WX    TMP DP  RH WIND       PRES   REMARKS
BOISE          PTCLDY    57  35  43 NW12      29.98R
CALDWELL       CLOUDY    59  34  38 NW8       30.01R
MOUNTAIN HOME  CLEAR     54  37  53 W10       29.97R
$$

IDZ016-017-010300-
SOUTHCENTRAL IDAHO


CITY           SKY/WX    TMP DP  RH WIND       PRES   REMARKS
BURLEY         PTCLDY    50  34  54 W20G28    29.93R
JEROME         CLEAR     49  34  56 SW9       29.97R
TWIN FALLS     CLEAR     50  35  56 SW14      29.97R
$$

IDZ019>023-010300-
SOUTHEAST IDAHO


CITY           SKY/WX    TMP DP  RH WIND       PRES   REMARKS
IDAHO FALLS    CLOUDY    51  37  58 S21       29.89R
POCATELLO      PTCLDY    50  37  61 SW15G21   29.94R
REXBURG        CLOUDY    48  43  82 NE7       29.90R
$$

IDZ006-010-011-018-031-032-010300-
CENTRAL IDAHO MOUNTAINS


CITY           SKY/WX    TMP DP  RH WIND       PRES   REMARKS
MCCALL         CLOUDY    44  31  60 NW5       30.01R
HAILEY         PTCLDY    52  28  40 W14G20    29.89R
STANLEY          N/A     36  33  89 CALM      30.00R
SALMON         MOCLDY    48  34  57 N7        29.94R
CHALLIS        MOCLDY    45  35  68 W7        29.96R
$$

IDZ002-004-006-007-026-010300-
NORTHERN IDAHO


CITY           SKY/WX    TMP DP  RH WIND       PRES   REMARKS
LEWISTON       CLOUDY    63  37  38 W13       29.96R
LOWELL           N/A     51  49  92 N6        30.02R
COEUR D`ALENE  MOCLDY    52  43  71 E5        29.93F
MULLAN PASS    CLOUDY    32  32 100 NW7       29.97S WCI  26
$$



USA.gov is the U.S. government's official web portal to all federal, state and local government web resources and services.